Total_Precipitation_Accumulation
0.10 0.19 0.16 0.14 0.13 0.22 0.17 0.23 0.28 0.02 0.12 0.65 0.67 0.23 0.05 0.02 0.02 0.03 0.03 0.01 0.00 0.00 0.00 0.00 0.01 0.02 0.04 0.01 0.02 0.05 0.07 0.08 0.02 0.00 0.00 0.00 0.00 0.00 0.08 0.21 0.26 0.31 0.25 0.34
0.07 0.23 0.29 0.25 0.23 0.29 0.16 0.34 0.30 0.13 0.28 0.38 0.23 0.06 0.02 0.04 0.02 0.03 0.04 0.02 0.00 0.00 0.00 0.02 0.01 0.02 0.01 0.00 0.01 0.07 0.15 0.22 0.14 0.10 0.05 0.02 0.02 0.00 0.02 0.05 0.05 0.05 0.04 0.13
0.07 0.23 0.29 0.30 0.31 0.42 0.38 0.55 0.39 0.39 0.55 0.18 0.06 0.03 0.06 0.11 0.03 0.02 0.04 0.03 0.03 0.01 0.00 0.01 0.02 0.01 0.00 0.00 0.00 0.03 0.08 0.10 0.08 0.07 0.04 0.01 0.01 0.01 0.00 0.01 0.02 0.01 0.00 0.02
0.07 0.25 0.30 0.28 0.33 0.40 0.62 0.75 0.47 0.07 0.18 0.08 0.03 0.05 0.04 0.02 0.04 0.06 0.05 0.08 0.03 0.02 0.02 0.01 0.01 0.03 0.00 0.00 0.00 0.00 0.02 0.01 0.02 0.03 0.05 0.05 0.04 0.02 0.01 0.00 0.00 0.00 0.00 0.00
0.06 0.15 0.25 0.33 0.31 0.52 0.60 0.53 0.36 0.20 0.02 0.00 0.01 0.08 0.15 0.03 0.01 0.05 0.05 0.10 0.06 0.06 0.04 0.02 0.01 0.03 0.01 0.00 0.00 0.00 0.00 0.03 0.02 0.02 0.00 0.00 0.01 0.00 0.00 0.00 0.00 0.00 0.00 0.00
0.07 0.24 0.19 0.21 0.35 0.62 0.62 0.18 0.11 0.38 0.41 0.11 0.05 0.03 0.03 0.06 0.14 0.08 0.02 0.02 0.06 0.12 0.12 0.03 0.01 0.01 0.01 0.01 0.00 0.00 0.00 0.02 0.05 0.06 0.03 0.15 0.12 0.00 0.00 0.00 0.00 0.00 0.00 0.00
0.06 0.27 0.24 0.17 0.27 0.38 0.14 0.14 0.16 0.21 0.26 0.42 0.18 0.02 0.01 0.02 0.09 0.13 0.09 0.12 0.06 0.03 0.04 0.09 0.09 0.01 0.00 0.00 0.00 0.00 0.00 0.01 0.03 0.02 0.03 0.14 0.04 0.00 0.00 0.00 0.00 0.00 0.00 0.00
0.08 0.16 0.23 0.14 0.17 0.21 0.15 0.20 0.22 0.27 0.21 0.09 0.21 0.17 0.06 0.05 0.11 0.13 0.13 0.12 0.08 0.05 0.06 0.09 0.13 0.06 0.04 0.01 0.00 0.00 0.00 0.00 0.02 0.01 0.02 0.01 0.00 0.00 0.00 0.00 0.00 0.00 0.00 0.00
0.11 0.16 0.16 0.15 0.11 0.22 0.20 0.22 0.19 0.23 0.23 0.09 0.04 0.09 0.14 0.15 0.13 0.18 0.16 0.13 0.11 0.09 0.06 0.07 0.07 0.03 0.01 0.01 0.00 0.00 0.00 0.00 0.00 0.01 0.01 0.02 0.01 0.00 0.00 0.00 0.01 0.00 0.00 0.00
0.11 0.12 0.12 0.16 0.11 0.20 0.29 0.20 0.16 0.29 0.35 0.18 0.06 0.08 0.13 0.08 0.09 0.16 0.08 0.12 0.26 0.22 0.11 0.05 0.02 0.01 0.00 0.00 0.00 0.01 0.00 0.01 0.00 0.00 0.00 0.01 0.00 0.00 0.00 0.00 0.02 0.00 0.00 0.00
0.09 0.10 0.10 0.13 0.15 0.17 0.27 0.16 0.08 0.23 0.55 0.34 0.27 0.07 0.13 0.11 0.08 0.08 0.04 0.08 0.13 0.20 0.18 0.05 0.04 0.04 0.01 0.01 0.00 0.00 0.00 0.00 0.00 0.01 0.01 0.02 0.00 0.00 0.00 0.01 0.00 0.00 0.00 0.01
0.07 0.07 0.09 0.15 0.22 0.16 0.20 0.25 0.12 0.18 0.39 0.22 0.26 0.17 0.10 0.06 0.07 0.01 0.00 0.02 0.01 0.04 0.04 0.01 0.01 0.03 0.02 0.01 0.01 0.00 0.01 0.02 0.02 0.01 0.01 0.00 0.00 0.00 0.00 0.00 0.00 0.00 0.00 0.00
0.06 0.07 0.11 0.19 0.26 0.17 0.18 0.23 0.20 0.17 0.11 0.10 0.19 0.20 0.10 0.05 0.04 0.01 0.00 0.00 0.00 0.00 0.01 0.02 0.02 0.03 0.01 0.02 0.02 0.00 0.00 0.00 0.00 0.01 0.01 0.00 0.00 0.00 0.00 0.00 0.00 0.00 0.00 0.00
0.06 0.08 0.13 0.19 0.30 0.14 0.16 0.18 0.16 0.18 0.09 0.07 0.13 0.06 0.12 0.09 0.02 0.01 0.00 0.00 0.00 0.00 0.00 0.01 0.05 0.06 0.04 0.04 0.01 0.02 0.00 0.00 0.00 0.02 0.01 0.00 0.01 0.00 0.00 0.00 0.00 0.00 0.00 0.00
0.05 0.07 0.12 0.20 0.30 0.12 0.11 0.12 0.13 0.12 0.07 0.01 0.08 0.07 0.09 0.06 0.00 0.01 0.00 0.00 0.00 0.00 0.00 0.00 0.03 0.02 0.01 0.00 0.01 0.01 0.00 0.00 0.00 0.01 0.00 0.00 0.00 0.00 0.00 0.00 0.00 0.00 0.00 0.00
0.05 0.07 0.12 0.24 0.20 0.16 0.19 0.30 0.13 0.04 0.01 0.01 0.01 0.02 0.02 0.00 0.00 0.00 0.00 0.00 0.00 0.00 0.00 0.00 0.00 0.00 0.01 0.01 0.01 0.00 0.00 0.00 0.00 0.00 0.00 0.00 0.00 0.00 0.00 0.00 0.00 0.00 0.00 0.00
0.05 0.08 0.12 0.16 0.10 0.08 0.04 0.08 0.06 0.00 0.01 0.01 0.00 0.00 0.00 0.00 0.00 0.00 0.00 0.00 0.00 0.00 0.00 0.00 0.00 0.00 0.00 0.02 0.01 0.00 0.00 0.00 0.00 0.00 0.00 0.00 0.00 0.00 0.00 0.00 0.00 0.00 0.00 0.00
0.07 0.06 0.07 0.09 0.05 0.04 0.00 0.00 0.00 0.01 0.03 0.01 0.00 0.00 0.00 0.00 0.00 0.00 0.00 0.00 0.00 0.00 0.00 0.00 0.00 0.00 0.00 0.00 0.00 0.00 0.00 0.00 0.00 0.00 0.00 0.00 0.00 0.00 0.00 0.00 0.00 0.00 0.00 0.00
0.03 0.07 0.14 0.14 0.08 0.04 0.02 0.00 0.00 0.00 0.01 0.01 0.00 0.00 0.00 0.00 0.00 0.00 0.00 0.00 0.00 0.00 0.00 0.00 0.00 0.01 0.00 0.00 0.00 0.00 0.00 0.00 0.00 0.00 0.00 0.00 0.00 0.00 0.00 0.00 0.00 0.00 0.00 0.00
0.05 0.10 0.10 0.13 0.03 0.01 0.00 0.01 0.01 0.00 0.00 0.00 0.01 0.00 0.00 0.00 0.00 0.00 0.00 0.00 0.00 0.01 0.00 0.00 0.00 0.01 0.00 0.00 0.00 0.00 0.00 0.00 0.00 0.00 0.00 0.00 0.00 0.00 0.00 0.00 0.00 0.00 0.00 0.00
0.04 0.04 0.02 0.03 0.02 0.00 0.00 0.00 0.00 0.00 0.00 0.00 0.01 0.00 0.00 0.00 0.00 0.00 0.00 0.01 0.00 0.01 0.02 0.00 0.01 0.01 0.00 0.00 0.00 0.00 0.00 0.00 0.00 0.00 0.00 0.00 0.00 0.00 0.00 0.00 0.00 0.00 0.00 0.00
0.00 0.00 0.00 0.00 0.00 0.00 0.00 0.00 0.00 0.00 0.00 0.00 0.00 0.00 0.00 0.00 0.00 0.01 0.00 0.00 0.00 0.03 0.02 0.01 0.02 0.02 0.00 0.00 0.00 0.00 0.00 0.00 0.00 0.00 0.00 0.00 0.00 0.00 0.00 0.00 0.00 0.00 0.00 0.00
0.00 0.00 0.00 0.00 0.00 0.00 0.00 0.00 0.00 0.00 0.00 0.00 0.01 0.01 0.01 0.01 0.01 0.00 0.00 0.00 0.02 0.02 0.02 0.04 0.04 0.01 0.00 0.00 0.00 0.00 0.00 0.00 0.00 0.00 0.00 0.00 0.00 0.00 0.01 0.01 0.00 0.00 0.00 0.00
0.00 0.00 0.00 0.00 0.00 0.01 0.01 0.01 0.00 0.00 0.00 0.01 0.01 0.00 0.01 0.02 0.00 0.00 0.01 0.01 0.00 0.01 0.05 0.11 0.01 0.01 0.01 0.01 0.00 0.00 0.01 0.01 0.01 0.00 0.00 0.00 0.00 0.04 0.06 0.04 0.01 0.00 0.00 0.00
0.00 0.00 0.00 0.01 0.02 0.02 0.01 0.00 0.00 0.00 0.02 0.01 0.01 0.01 0.00 0.00 0.00 0.00 0.00 0.00 0.00 0.03 0.15 0.07 0.00 0.00 0.02 0.03 0.02 0.01 0.02 0.01 0.01 0.01 0.00 0.01 0.02 0.04 0.08 0.09 0.05 0.03 0.00 0.00
0.00 0.01 0.02 0.03 0.02 0.04 0.03 0.01 0.00 0.00 0.02 0.03 0.01 0.01 0.00 0.00 0.00 0.00 0.00 0.01 0.07 0.06 0.01 0.01 0.00 0.01 0.02 0.02 0.02 0.02 0.02 0.01 0.01 0.02 0.03 0.07 0.07 0.05 0.07 0.08 0.07 0.05 0.01 0.00
0.01 0.05 0.08 0.07 0.03 0.08 0.07 0.03 0.01 0.02 0.05 0.02 0.01 0.00 0.00 0.00 0.00 0.01 0.01 0.03 0.03 0.01 0.00 0.00 0.00 0.01 0.03 0.06 0.06 0.05 0.04 0.04 0.04 0.04 0.08 0.11 0.10 0.07 0.04 0.04 0.05 0.04 0.01 0.00